TimeCDT,TemperatureF,Dew PointF,Humidity,Sea Level PressureIn,VisibilityMPH,Wind Direction,Wind SpeedMPH,Gust SpeedMPH,PrecipitationIn,Events,Conditions,WindDirDegrees,DateUTC
12:17 AM,50.0,35.6,58,30.04,10.0,SE,3.5,-,N/A,,Clear,130,2009-05-12 05:17:00
12:37 AM,50.0,35.6,58,30.04,10.0,Calm,Calm,-,N/A,,Clear,0,2009-05-12 05:37:00
12:57 AM,50.0,35.6,58,30.04,10.0,Calm,Calm,-,N/A,,Clear,0,2009-05-12 05:57:00
1:17 AM,48.2,33.8,58,30.04,10.0,Calm,Calm,-,N/A,,Clear,0,2009-05-12 06:17:00
1:37 AM,44.6,33.8,66,30.03,10.0,Calm,Calm,-,N/A,,Mostly Cloudy,0,2009-05-12 06:37:00
1:57 AM,48.2,33.8,58,30.02,10.0,Calm,Calm,-,N/A,,Mostly Cloudy,0,2009-05-12 06:57:00
2:17 AM,50.0,33.8,54,30.02,10.0,SSE,3.5,-,N/A,,Mostly Cloudy,160,2009-05-12 07:17:00
2:37 AM,50.0,33.8,54,30.01,10.0,SSE,4.6,-,N/A,,Mostly Cloudy,150,2009-05-12 07:37:00
2:57 AM,50.0,33.8,54,30.01,10.0,South,5.8,-,N/A,,Overcast,170,2009-05-12 07:57:00
3:17 AM,50.0,33.8,54,30.01,10.0,South,5.8,-,N/A,,Scattered Clouds,170,2009-05-12 08:17:00
3:37 AM,50.0,33.8,54,30.00,10.0,South,5.8,-,N/A,,Clear,170,2009-05-12 08:37:00
3:57 AM,50.0,35.6,58,30.00,10.0,South,8.1,-,N/A,,Clear,170,2009-05-12 08:57:00
4:17 AM,50.0,35.6,58,29.99,10.0,South,6.9,-,N/A,,Clear,170,2009-05-12 09:17:00
4:37 AM,50.0,35.6,58,29.99,10.0,South,6.9,-,N/A,,Clear,180,2009-05-12 09:37:00
4:57 AM,50.0,35.6,58,29.99,10.0,South,6.9,-,N/A,,Clear,170,2009-05-12 09:57:00
5:17 AM,48.2,33.8,58,29.99,10.0,South,8.1,-,N/A,,Clear,180,2009-05-12 10:17:00
5:37 AM,50.0,35.6,58,29.99,10.0,South,8.1,-,N/A,,Clear,180,2009-05-12 10:37:00
5:57 AM,50.0,35.6,58,29.99,10.0,South,8.1,-,N/A,,Clear,180,2009-05-12 10:57:00
6:17 AM,50.0,35.6,58,29.99,10.0,South,8.1,-,N/A,,Clear,170,2009-05-12 11:17:00
6:37 AM,50.0,35.6,58,29.99,10.0,South,8.1,-,N/A,,Clear,170,2009-05-12 11:37:00
6:57 AM,50.0,33.8,54,29.98,10.0,South,8.1,-,N/A,,Clear,170,2009-05-12 11:57:00
7:17 AM,53.6,35.6,51,29.98,10.0,South,8.1,-,N/A,,Mostly Cloudy,180,2009-05-12 12:17:00
7:37 AM,53.6,35.6,51,29.98,10.0,South,9.2,-,N/A,,Mostly Cloudy,180,2009-05-12 12:37:00
7:57 AM,55.4,37.4,51,29.97,10.0,South,10.4,-,N/A,,Overcast,180,2009-05-12 12:57:00
8:37 AM,55.4,37.4,51,29.97,10.0,South,11.5,18.4,N/A,,Overcast,180,2009-05-12 13:37:00
8:57 AM,55.4,37.4,51,29.96,10.0,South,12.7,-,N/A,,Overcast,190,2009-05-12 13:57:00
9:17 AM,55.4,37.4,51,29.96,10.0,South,12.7,17.3,N/A,,Overcast,180,2009-05-12 14:17:00
9:37 AM,55.4,37.4,51,29.95,10.0,South,11.5,18.4,N/A,,Overcast,180,2009-05-12 14:37:00
9:57 AM,57.2,37.4,48,29.94,10.0,South,10.4,21.9,N/A,,Overcast,170,2009-05-12 14:57:00
10:17 AM,59.0,39.2,48,29.93,10.0,South,13.8,20.7,N/A,,Mostly Cloudy,180,2009-05-12 15:17:00
10:37 AM,60.8,41.0,48,29.92,10.0,South,16.1,20.7,N/A,,Scattered Clouds,180,2009-05-12 15:37:00
10:57 AM,60.8,41.0,48,29.92,10.0,South,16.1,23.0,N/A,,Scattered Clouds,190,2009-05-12 15:57:00
11:17 AM,62.6,42.8,48,29.91,10.0,South,17.3,21.9,N/A,,Mostly Cloudy,190,2009-05-12 16:17:00
11:37 AM,62.6,42.8,48,29.90,10.0,SSW,23.0,27.6,N/A,,Overcast,210,2009-05-12 16:37:00
11:57 AM,64.4,42.8,45,29.89,10.0,South,21.9,28.8,N/A,,Overcast,180,2009-05-12 16:57:00
12:17 PM,64.4,42.8,45,29.89,10.0,South,21.9,31.1,N/A,,Overcast,190,2009-05-12 17:17:00
12:37 PM,64.4,44.6,49,29.89,10.0,South,17.3,25.3,N/A,,Overcast,190,2009-05-12 17:37:00
12:57 PM,62.6,42.8,48,29.88,10.0,South,16.1,25.3,N/A,,Overcast,190,2009-05-12 17:57:00
1:17 PM,62.6,42.8,48,29.87,10.0,South,17.3,23.0,N/A,,Overcast,180,2009-05-12 18:17:00
1:37 PM,64.4,42.8,45,29.85,10.0,South,20.7,28.8,N/A,,Overcast,190,2009-05-12 18:37:00
1:57 PM,62.6,41.0,45,29.84,10.0,South,15.0,24.2,N/A,,Overcast,180,2009-05-12 18:57:00
2:17 PM,64.4,42.8,45,29.82,10.0,South,19.6,27.6,N/A,,Overcast,180,2009-05-12 19:17:00
2:37 PM,66.2,41.0,40,29.80,10.0,South,18.4,28.8,N/A,,Mostly Cloudy,170,2009-05-12 19:37:00
2:57 PM,64.4,41.0,42,29.79,10.0,South,21.9,26.5,N/A,,Mostly Cloudy,170,2009-05-12 19:57:00
3:17 PM,68.0,41.0,37,29.77,10.0,South,20.7,29.9,N/A,,Overcast,170,2009-05-12 20:17:00
3:37 PM,66.2,41.0,40,29.77,10.0,SSE,19.6,29.9,N/A,,Overcast,160,2009-05-12 20:37:00
3:57 PM,66.2,41.0,40,29.75,10.0,South,20.7,27.6,N/A,,Overcast,170,2009-05-12 20:57:00
4:17 PM,68.0,42.8,40,29.74,10.0,South,21.9,29.9,N/A,,Overcast,170,2009-05-12 21:17:00
4:37 PM,64.4,41.0,42,29.72,10.0,South,16.1,25.3,N/A,,Overcast,170,2009-05-12 21:37:00
4:57 PM,64.4,41.0,42,29.72,10.0,South,20.7,26.5,N/A,,Overcast,170,2009-05-12 21:57:00
5:17 PM,64.4,41.0,42,29.72,10.0,South,17.3,24.2,N/A,,Overcast,170,2009-05-12 22:17:00
5:37 PM,64.4,41.0,42,29.71,10.0,South,17.3,24.2,N/A,,Overcast,170,2009-05-12 22:37:00
5:57 PM,64.4,41.0,42,29.70,10.0,South,17.3,24.2,N/A,,Overcast,170,2009-05-12 22:57:00
6:17 PM,64.4,41.0,42,29.70,10.0,South,15.0,24.2,N/A,,Overcast,170,2009-05-12 23:17:00
6:37 PM,64.4,41.0,42,29.70,10.0,South,11.5,24.2,N/A,,Overcast,170,2009-05-12 23:37:00
6:57 PM,64.4,41.0,42,29.69,10.0,South,17.3,24.2,N/A,,Overcast,170,2009-05-12 23:57:00
7:17 PM,64.4,41.0,42,29.69,10.0,SSE,13.8,20.7,N/A,,Overcast,160,2009-05-13 00:17:00
7:37 PM,64.4,41.0,42,29.68,10.0,South,13.8,-,N/A,,Overcast,170,2009-05-13 00:37:00
7:57 PM,64.4,42.8,45,29.67,10.0,South,15.0,24.2,N/A,,Overcast,170,2009-05-13 00:57:00
8:17 PM,64.4,42.8,45,29.69,10.0,South,16.1,26.5,N/A,,Overcast,190,2009-05-13 01:17:00
8:37 PM,62.6,46.4,55,29.70,10.0,South,17.3,28.8,N/A,Rain,Light Rain,180,2009-05-13 01:37:00
8:57 PM,60.8,46.4,59,29.70,10.0,South,12.7,24.2,N/A,,Overcast,170,2009-05-13 01:57:00
9:17 PM,60.8,46.4,59,29.69,10.0,South,13.8,24.2,N/A,,Overcast,180,2009-05-13 02:17:00
9:37 PM,60.8,48.2,63,29.70,10.0,South,12.7,24.2,N/A,,Overcast,170,2009-05-13 02:37:00
9:57 PM,60.8,50.0,68,29.69,10.0,South,15.0,24.2,N/A,,Overcast,170,2009-05-13 02:57:00
10:17 PM,59.0,48.2,67,29.68,10.0,South,15.0,19.6,N/A,,Overcast,170,2009-05-13 03:17:00
10:37 PM,59.0,48.2,67,29.69,10.0,South,16.1,27.6,N/A,,Overcast,180,2009-05-13 03:37:00
10:57 PM,59.0,48.2,67,29.67,10.0,South,20.7,26.5,N/A,,Overcast,170,2009-05-13 03:57:00
11:17 PM,59.0,48.2,67,29.65,10.0,South,13.8,24.2,N/A,,Overcast,170,2009-05-13 04:17:00
11:37 PM,59.0,46.4,63,29.65,10.0,South,18.4,27.6,N/A,,Overcast,170,2009-05-13 04:37:00
11:57 PM,59.0,46.4,63,29.65,10.0,SSE,15.0,26.5,N/A,,Overcast,160,2009-05-13 04:57:00